sat.trackr.live / text

‹ back to catalog

STARLINK-32491

NORAD 62043 · 2024-216M

PAYLOAD ACTIVE UNKNOWN

§ Identity

Operator
Country
US
Launch date
2024-11-21
Launch site
AFETR
Launch vehicle
Mass (kg)
RCS (m²)

Purposes: comms

External: N2YO · Heavens-Above · Gunter

§ Orbital elements

Epoch: 2026-05-24T19:53:40.722720Z

Period
94.27 min
Inclination
42.9981°
Eccentricity
0.0001406
Mean motion
15.27584214 rev/d
Perigee alt
482.1 km
Apogee alt
484.0 km
Semi-major
6,861.2 km
B*
4.0691e-4
RAAN
193.8093°
Arg perigee
273.5225°
Mean anomaly
86.5466°
Rev number
8,543

§ Raw data

STARLINK-324911 62043U 24216M   26144.82894355  .00010953  00000+0  40691-3 0  99912 62043  42.9981 193.8093 0001406 273.5225  86.5466 15.27584214 85434

JSON: /api/v1/satellites/62043 · /tle

For live sub-satellite position, see the globe view (requires WebGL).

§ Visibility from observer

Set your observer location to see the next 7 days of passes ≥ 10°. The values pass through the URL so the page stays shareable.

No JS? Fill the form by hand. The geolocation button needs JavaScript.